Location: Unspecified
(0.0000°N, 1.0000°E)
Time: 06:23:28
(UTC+02:00)

Hubble Space Telescope - Visible Passes

Search period start: 25 September 2020 00:00
Search period end: 05 October 2020 00:00
Orbit: 536 x 540 km, 28.5° (Epoch: 24 September)

Date Brightness Start Highest point End Pass type
(mag) Time Alt. Az. Time Alt. Az. Time Alt. Az.
03 Oct 3.0 20:34:56 10° S 20:36:23 12° SSE 20:37:47 10° SE visible
04 Oct 2.8 20:23:12 10° S 20:25:44 16° SSE 20:28:00 11° ESE visible
04 Oct 3.8 22:02:47 10° WSW 22:03:21 14° WSW 22:03:21 14° WSW visible
